Pamplona, Spain

12:35 AM CEST on April 30, 2017 (GMT +0200)
Pamplona

Weather History for LEPP - October, 2013

Change the Weather History Date:

Friday, October 25, 2013

  Actual Average Record
Temperature  
Mean Temperature 70 °F -  
Max Temperature 75 °F 54 °F 78 °F (2014)
Min Temperature 62 °F 41 °F 33 °F (2003)
Cooling Degree Days 4    
Growing Degree Days 20 (Base 50)    
Moisture  
Dew Point 60 °F    
Average Humidity 73    
Maximum Humidity 94    
Minimum Humidity 50    
Precipitation  
Precipitation 0.00 in - - ()
Sea Level Pressure  
Sea Level Pressure 29.90 in    
Wind  
Wind Speed 13 mph ()    
Max Wind Speed 24 mph    
Max Gust Speed 38 mph    
Visibility 6.0 miles    
Events Rain , Thunderstorm    
Averages and records for this station are not official NWS values.
T = Trace of Precipitation, MM = Missing Value Source: Averaged Metar Reports

Daily Weather History Graph

Daily Weather History Graph

Search for Another Location

Airport or City:

Trip Planner

Search our weather history database for the weather conditions in past years. The results will help you decide how hot, cold, wet, or windy it might be!

Date:

Astronomy

Oct. 25, 2013 Rise Set
Actual Time 8:31 AM CEST 7:08 PM CEST
Civil Twilight 8:02 AM CEST 7:37 PM CEST
Nautical Twilight 7:29 AM CEST 8:10 PM CEST
Astronomical Twilight 6:57 AM CEST 8:43 PM CEST
Moon No Moon Rise 2:05 PM CEST (10/25)
Length of Visible Light 11h 34m
Length of Day
10h 36m
Waning Gibbous, 65% of the Moon is Illuminated
Oct 25
Waning Gibbous
Oct 27
Last Quarter
Nov 3
New
Nov 10
First Quarter
Nov 17
Full

Hourly Weather History & Observations

Time (CEST) Temp. Dew Point Humidity Pressure Visibility Wind Dir Wind Speed Gust Speed Precip Events Conditions
12:00 AM 64.4 °F 59.0 °F 83% 29.89 in 6.2 mi SE 15.0 mph - N/A Rain Light Rain
5:30 AM 68.0 °F 59.0 °F 73% 29.86 in 6.2 mi SE 17.3 mph - N/A   Mostly Cloudy
6:00 AM 68.0 °F 59.0 °F 73% 29.89 in 6.2 mi SSE 13.8 mph - N/A   Mostly Cloudy
6:30 AM 68.0 °F 57.2 °F 68% 29.89 in 6.2 mi SSE 13.8 mph - N/A   Mostly Cloudy
7:00 AM 66.2 °F 57.2 °F 73% 29.86 in 6.2 mi ESE 12.7 mph - N/A   Mostly Cloudy
7:30 AM 66.2 °F 59.0 °F 78% 29.86 in 6.2 mi SE 12.7 mph - N/A   Mostly Cloudy
8:00 AM 66.2 °F 57.2 °F 73% 29.86 in 6.2 mi SE 13.8 mph - N/A   Mostly Cloudy
8:30 AM 66.2 °F 59.0 °F 78% 29.86 in 6.2 mi ESE 12.7 mph - N/A   Mostly Cloudy
9:00 AM 66.2 °F 59.0 °F 78% 29.89 in 6.2 mi SE 15.0 mph 26.5 mph N/A   Mostly Cloudy
9:30 AM 68.0 °F 59.0 °F 73% 29.89 in 6.2 mi SE 12.7 mph - N/A   Mostly Cloudy
10:00 AM 69.8 °F 60.8 °F 73% 29.89 in 6.2 mi SE 12.7 mph 25.3 mph N/A   Mostly Cloudy
10:30 AM 69.8 °F 59.0 °F 68% 29.89 in 6.2 mi SE 18.4 mph - N/A   Mostly Cloudy
11:00 AM 69.8 °F 59.0 °F 68% 29.89 in 6.2 mi SE 18.4 mph 31.1 mph N/A   Scattered Clouds
11:30 AM 73.4 °F 60.8 °F 65% 29.89 in 6.2 mi SE 17.3 mph - N/A   Scattered Clouds
12:00 PM 69.8 °F 59.0 °F 68% 29.89 in 6.2 mi SSE 21.9 mph 34.5 mph N/A   Mostly Cloudy
12:30 PM 71.6 °F 57.2 °F 60% 29.92 in 6.2 mi SSE 24.2 mph 36.8 mph N/A   Scattered Clouds
1:00 PM 75.2 °F 57.2 °F 53% 29.92 in 6.2 mi SSE 21.9 mph - N/A   Scattered Clouds
1:30 PM 73.4 °F 57.2 °F 57% 29.92 in 6.2 mi SSE 24.2 mph 38.0 mph N/A   Scattered Clouds
2:00 PM 73.4 °F 59.0 °F 61% 29.89 in 6.2 mi SSE 17.3 mph - N/A   Scattered Clouds
2:30 PM 73.4 °F 57.2 °F 57% 29.89 in 6.2 mi SSE 18.4 mph 34.5 mph N/A   Scattered Clouds
3:00 PM 75.2 °F 59.0 °F 57% 29.89 in 6.2 mi SSE 16.1 mph - N/A   Scattered Clouds
3:30 PM 75.2 °F 57.2 °F 53% 29.89 in 6.2 mi SSE 17.3 mph 31.1 mph N/A   Scattered Clouds
4:00 PM 75.2 °F 55.4 °F 50% 29.86 in 6.2 mi SSE 19.6 mph 31.1 mph N/A   Scattered Clouds
4:30 PM 73.4 °F 57.2 °F 57% 29.89 in 6.2 mi South 19.6 mph - N/A   Scattered Clouds
5:00 PM 71.6 °F 60.8 °F 69% 29.86 in 6.2 mi SE 11.5 mph - N/A Rain Light Rain
5:30 PM 69.8 °F 62.6 °F 78% 29.89 in 5.0 mi South 12.7 mph - N/A Rain Rain
5:33 PM 68.0 °F 64.4 °F 88% 29.89 in 6.2 mi South 11.5 mph - N/A Rain Light Rain
6:00 PM 68.0 °F 64.4 °F 88% 29.89 in 6.2 mi South 5.8 mph - N/A Rain Rain Showers
6:10 PM 68.0 °F 64.4 °F 88% 29.89 in 6.2 mi South 10.4 mph - N/A   Scattered Clouds
6:30 PM 66.2 °F 64.4 °F 94% 29.89 in 6.2 mi SSE 8.1 mph - N/A   Scattered Clouds
7:00 PM 66.2 °F 62.6 °F 88% 29.89 in 6.2 mi SSE 3.5 mph - N/A   Scattered Clouds
7:30 PM 66.2 °F 60.8 °F 83% 29.92 in 6.2 mi SE 6.9 mph - N/A Thunderstorm Scattered Clouds
8:00 PM 68.0 °F 60.8 °F 78% 29.92 in 6.2 mi SSE 11.5 mph - N/A Thunderstorm Mostly Cloudy
8:30 PM 66.2 °F 60.8 °F 83% 29.92 in 6.2 mi South 9.2 mph - N/A   Scattered Clouds
9:00 PM 66.2 °F 60.8 °F 83% 29.92 in 6.2 mi ESE 5.8 mph - N/A   Scattered Clouds
9:30 PM 68.0 °F 60.8 °F 78% 29.92 in 6.2 mi Variable 1.2 mph - N/A   Scattered Clouds
10:00 PM 68.0 °F 60.8 °F 78% 29.92 in 6.2 mi Calm Calm - N/A   Scattered Clouds
10:30 PM 68.0 °F 60.8 °F 78% 29.92 in 6.2 mi Calm Calm - N/A   Scattered Clouds
11:00 PM 69.8 °F 60.8 °F 73% 29.92 in 6.2 mi South 3.5 mph - N/A   Scattered Clouds
11:30 PM 68.0 °F 60.8 °F 78% 29.95 in 6.2 mi ESE 1.2 mph - N/A Thunderstorm Thunderstorm
11:42 PM 62.6 °F 59.0 °F 88% 29.98 in 1.2 mi SSW 15.0 mph - N/A Rain , Thunderstorm Heavy Rain Showers